Tracking 19176 objects as of 26-May-2018
HD Live streaming from Space Station
objects crossing your sky now

FENGYUN 1C DEB

Track FENGYUN 1C DEB now!
10-day predictions


NORAD ID: 29820
Int'l Code: 1999-025DN
Perigee: 855.2 km
Apogee: 952.0 km
Inclination: 99.1 °
Period: 102.9 minutes
Semi major axis: 7274 km
RCS: 0.0938 m2 (small)
Launch date: May 10, 1999
Source: People's Republic of China (PRC)
Launch site: Taiyaun Space Center, China (TSC)

Note: This is SATELLITE DEBRIS
aabbcc
Your satellite tracking list
Your tracking list is empty




NASA's NSSDC Master Catalog

Two Line Element Set (TLE):
1 29820U 99025DN  18145.55550897 +.00000099 +00000-0 +97097-4 0  9993
2 29820 099.0754 177.5056 0066545 310.4249 166.8411 13.99226627579608
Source of the keplerian elements: AFSPC